Regional Weather Roundup
Issued by NWS

Home | Current Version | Previous Version | Graphics & Text | Print | Product List | Glossary On
Versions: 1 2 3 4 5 6 7 8 9 10 11 12 13 14 15 16 17 18 19 20 21 22 23 24 25 26 27 28 29 30 31 32 33 34 35 36 37 38 39 40 41 42 43 44 45 46 47 48 49 50
000
ASUS43 KMKX 280800
RWRWI

WISCONSIN REGIONAL WEATHER ROUNDUP
NATIONAL WEATHER SERVICE MILWAUKEE/SULLIVAN WI
300 AM CDT FRI APR 28 2017

NOTE: "FAIR" INDICATES FEW OR NO CLOUDS BELOW 12,000 FEET WITH NO
SIGNIFICANT WEATHER AND/OR OBSTRUCTIONS TO VISIBILITY.

WIZ001-002-006>008-014>016-023>028-280900-
NORTHWEST WISCONSIN

CITY           SKY/WX    TMP DP  RH WIND       PRES   REMARKS
SUPERIOR ARPT  CLOUDY    31  25  77 W9        29.73R WCI  23
ASHLAND        CLOUDY    29  24  82 SW12      29.71S WCI  19
HAYWARD        LGT SNOW  29  26  89 W6        29.72S VSB 3/4 WCI  23
SIREN          CLOUDY    32  26  79 CALM      29.76R
CUMBERLAND     CLOUDY    32  25  74 W10       29.75R WCI  24
RICE LAKE      CLOUDY    32  26  77 W5        29.77S WCI  27
CHETEK         NOT AVBL
LADYSMITH      CLOUDY    31  26  78 SW8       29.76S WCI  24
EAU CLAIRE     CLOUDY    34  25  69 W9        29.79R WCI  27
MENOMONIE      CLOUDY    35  25  68 SW8       29.79S WCI  28
NEW RICHMOND   CLOUDY    32  25  76 W6        29.79R WCI  26
OSCEOLA        MOCLDY    32  27  80 W7        29.82R WCI  26
$$

WIZ003>005-009-010-017-018-280900-
NORTH CENTRAL WISCONSIN

CITY           SKY/WX    TMP DP  RH WIND       PRES   REMARKS
MANITOWISH WTR NOT AVBL
ARBOR VITAE    CLOUDY    29  26  89 W10       29.67F WCI  20
WOODRUFF       CLOUDY    29  26  89 W10       29.67F WCI  20
RHINELANDER    CLOUDY    29  25  85 SW9       29.70S WCI  20
EAGLE RIVER    CLOUDY    28  23  83 W8        29.67S WCI  19
LAND O LAKES   CLOUDY    28  24  86 W7        29.68S WCI  21
PHILLIPS       FLURRIES  28  26  96 SW7       29.70S WCI  20
TOMAHAWK       CLOUDY    28  24  83 CALM      29.72S
MEDFORD        CLOUDY    29  24  80 W9G16     29.74S WCI  21
MERRILL        CLOUDY    30  25  84 W6        29.74S WCI  24
$$

WIZ029-030-035-036-043>047-280900-
CENTRAL WISCONSIN

CITY           SKY/WX    TMP DP  RH WIND       PRES   REMARKS
WAUSAU         CLOUDY    30  24  78 W14       29.75S WCI  19
MOSINEE        CLOUDY    30  28  93 W14       29.77S WCI  20
MARSHFIELD     CLOUDY    31  26  82 W10       29.77R WCI  22
STEVENS POINT  CLOUDY    31  28  91 W10G20    29.79R WCI  22
WAUPACA        CLOUDY    37  30  75 SW12      29.79R WCI  30
WAUTOMA        CLOUDY    35  30  82 W12       29.82R WCI  27
WISC RAPIDS    CLOUDY    33  31  92 W6        29.81R WCI  28
CAMP DOUGLAS   NOT AVBL
$$

WIZ011>013-019>022-031-037>040-048>050-280900-
NORTHEAST WISCONSIN

CITY           SKY/WX    TMP DP  RH WIND       PRES   REMARKS
ANTIGO         CLOUDY    28  26  89 W10       29.73S WCI  19
SHAWANO        CLOUDY    37  31  80 W8G17     29.77R WCI  30
OCONTO         NOT AVBL
STURGEON BAY   CLOUDY    37  31  78 W13       29.77R WCI  29
GREEN BAY      CLOUDY    38  33  82 W14       29.78R WCI  30
MANITOWOC      NOT AVBL
APPLETON       CLOUDY    34  32  93 W16       29.77S WCI  23
CLINTONVILLE   CLOUDY    34  28  80 W14G20    29.78R WCI  24
OSHKOSH        CLOUDY    37  31  78 W13       29.80R WCI  29
$$

WIZ032>034-041-042-053>061-280900-
SOUTHWEST WISCONSIN

CITY           SKY/WX    TMP DP  RH WIND       PRES   REMARKS
LA CROSSE      CLOUDY    38  27  64 W9        29.85R WCI  31
SPARTA         CLOUDY    35  29  79 W9        29.83S WCI  28
VIROQUA        CLOUDY    33  29  85 W7        29.83R WCI  27
BOSCOBEL       MOCLDY    38  28  67 W7        29.86S WCI  33
PRAIRIE DU CHI CLEAR     35  28  74 W9        29.86S WCI  28
PLATTEVILLE    PTCLDY    32  32 100 SW3       29.86S
$$

WIZ056-057-062-063-064-067-068-280900-
SOUTH CENTRAL WISCONSIN

CITY           SKY/WX    TMP DP  RH WIND       PRES   REMARKS
REEDSBURG      NOT AVBL
BARABOO/DELLS  CLOUDY    35  28  76 W8        29.82S WCI  29
LONE ROCK      NOT AVBL
MINERAL POINT  CLEAR     34  32  93 W7        29.84S WCI  28
MADISON        CLOUDY    38  29  70 W7        29.83S WCI  33
MIDDLETON      CLOUDY    38  31  77 W9        29.84S WCI  32
WATERTOWN      CLOUDY    38  32  78 SW10      29.83S WCI  31
MONROE         PTCLDY    34  32  93 SW6       29.84F WCI  29
JANESVILLE     MOCLDY    36  34  93 SW6       29.85F WCI  31
$$

WIZ051-052-058>065-066-070>072-280900-
SOUTHEAST WISCONSIN

CITY           SKY/WX    TMP DP  RH WIND       PRES   REMARKS
MILWAUKEE      PTCLDY    40  32  73 W12       29.84S WCI  33
WAUKESHA       MOCLDY    34  30  86 SW8       29.84F WCI  27
MILWAUKEE/TIMM CLOUDY    37  28  70 SW12G22   29.84S WCI  30
RACINE         CLOUDY    40  32  73 W9        29.87R WCI  34
KENOSHA        CLOUDY    40  32  73 W13       29.85S WCI  32
FOND DU LAC    CLOUDY    39  30  70 SW8G18    29.81R WCI  33
SHEBOYGAN      CLOUDY    39  33  79 W20G26    29.81R WCI  29
WEST BEND      CLOUDY    37  32  81 W10G20    29.82S WCI  30
JUNEAU         CLOUDY    37  31  78 SW14      29.83S WCI  29
$$

LSZ147-162-280900-
LAKE SUPERIOR

STATION/POSITION TIME  TEMP    WIND        PRES    WAVE
                       AIR SEA DIR/SP/G            HT/PER
                 (UTC) (F)     (DEG/KT/KT) (MB)    (FT/S)
DEVILS ISLAND    0700   32     260/ 20/ 24 1005.5R
PORT WING        0730   32     260/ 10/ 21 1006.1S
SAXON HARBOR     0740   30     220/  7/ 12 1005.8S
$$

LMZ867-665-643>646-280900-
LAKE MICHIGAN

STATION/POSITION TIME  TEMP    WIND        PRES    WAVE
                       AIR SEA DIR/SP/G            HT/PER
                 (UTC) (F)     (DEG/KT/KT) (MB)    (FT/S)
CHAMBERS ISLAND  0740   36     220/  9/ 17 1007.1S
N MID LAKE BUOY  0650   37 37  250/ 17/ 21 1007.8R   4/ 4
NORTHPORT PIER   0740   36     250/  5/ 17 1007.8R
SISTER BAY       0621   38     290/ 18/ 20   N/A
KEWAUNEE LAKESHO 0730   39     250/  8/ 12 1008.0R
SHEBOYGAN LAKESH 0700   40     240/ 19/ 23 1009.5R
PORT WASHINGTON  0730   41     260/  5/ 15 1011.2S
MILWAUKEE LAKESH 0730   40     250/  9/ 11   N/A
S MID LAKE BUOY  0650   43 41  260/ 12/ 16 1011.4R   3/ 4
KENOSHA   LAKESH 0700   43     250/ 12/ 19 1010.8
$$

TC  - TEMPERATURE IN CELSIUS
VSB - VISIBILITY IN STATUTE MILES
WCI - WIND CHILL INDEX
HX  - HEAT INDEX





USA.gov is the U.S. government's official web portal to all federal, state and local government web resources and services.